Terug naar catalogus

FENGYUN 2E

ActiefWeerGEO
NORAD 33463·PAYLOAD·🇨🇳 China

Gelanceerd Dec 23, 2008 vanaf Xichang Satellite Launch Center

Loading…

TLE

VersSource: Space-Track

Epoch: Sep 14, 2026, 21:51 UTC

1 33463U 08066A   26257.91099403  .00000017  00000-0  00000-0 0  9994
2 33463   9.4685  53.3692 0000564 138.3177  26.1989  0.99118017 64894

Volg FENGYUN 2E in realtime met AllMySat

Download on the App Store